Precipitable_Water
0.29 0.23 0.22 0.22 0.23 0.25 0.28 0.30 0.30 0.30 0.29 0.29 0.28 0.29 0.30 0.31 0.38 0.48 0.55 0.68 0.78 0.66 0.63 0.65 0.67 0.67 0.66 0.71 0.76 0.83 0.87 0.87 0.84 0.81 0.78 0.76 0.77 0.79 0.82 0.87 0.92 0.96 1.00 1.15 1.19 1.22 1.23 1.26 1.30 1.33 1.34 1.32 1.32 1.33 1.33 1.32 1.31 1.33 1.36 1.39 1.37 1.47 1.52 1.44 1.40 1.50 1.57 1.48 1.47 1.54 1.52 1.44 1.48 1.46 1.47 1.46 1.47 1.48 1.53 1.56 1.60 1.63 1.66 1.59 1.60 1.81
0.28 0.23 0.23 0.25 0.28 0.30 0.32 0.33 0.33 0.32 0.31 0.30 0.28 0.26 0.28 0.31 0.33 0.46 0.53 0.65 0.75 0.62 0.64 0.71 0.69 0.70 0.68 0.73 0.78 0.83 0.81 0.75 0.80 0.79 0.78 0.76 0.78 0.83 0.84 0.86 0.90 0.98 1.09 1.13 1.12 1.17 1.20 1.23 1.26 1.28 1.28 1.26 1.18 1.21 1.25 1.20 1.21 1.25 1.32 1.33 1.41 1.50 1.53 1.52 1.48 1.52 1.50 1.51 1.56 1.46 1.40 1.42 1.43 1.42 1.40 1.38 1.45 1.47 1.50 1.53 1.63 1.66 1.60 1.59 1.66 1.71
0.25 0.24 0.26 0.30 0.33 0.34 0.34 0.33 0.33 0.31 0.29 0.30 0.28 0.28 0.27 0.30 0.39 0.50 0.56 0.66 0.72 0.63 0.63 0.72 0.63 0.67 0.71 0.75 0.81 0.79 0.78 0.82 0.89 0.90 0.84 0.80 0.77 0.79 0.85 0.88 0.91 0.94 0.97 1.05 1.09 1.14 1.17 1.20 1.22 1.23 1.23 1.21 1.19 1.18 1.16 1.18 1.18 1.20 1.21 1.25 1.31 1.39 1.41 1.49 1.57 1.57 1.38 1.37 1.44 1.41 1.38 1.36 1.31 1.38 1.35 1.31 1.32 1.33 1.32 1.39 1.47 1.48 1.50 1.50 1.52 1.53
0.25 0.27 0.30 0.33 0.33 0.32 0.31 0.30 0.29 0.28 0.28 0.26 0.26 0.25 0.24 0.32 0.30 0.31 0.48 0.62 0.68 0.63 0.61 0.70 0.64 0.69 0.76 0.81 0.82 0.86 0.85 0.86 0.93 0.96 0.94 0.92 0.84 0.82 0.84 0.89 0.90 0.92 0.94 0.97 1.03 1.07 1.13 1.15 1.16 1.17 1.15 1.15 1.13 1.11 1.12 1.14 1.15 1.18 1.19 1.22 1.26 1.31 1.39 1.45 1.44 1.34 1.41 1.44 1.42 1.35 1.24 1.17 1.08 0.99 1.01 1.02 1.08 1.16 1.20 1.23 1.32 1.36 1.39 1.39 1.38 1.39
0.27 0.29 0.32 0.32 0.31 0.30 0.27 0.28 0.27 0.26 0.25 0.27 0.27 0.26 0.27 0.29 0.31 0.33 0.41 0.57 0.69 0.73 0.76 0.70 0.63 0.63 0.69 0.66 0.70 0.83 0.92 0.89 0.92 0.95 0.96 0.98 0.98 0.98 1.01 0.99 0.99 0.96 0.97 0.97 1.02 1.07 1.10 1.11 1.12 1.13 1.14 1.14 1.07 1.07 1.09 1.11 1.13 1.16 1.19 1.23 1.26 1.30 1.31 1.30 1.26 1.24 1.21 1.15 1.09 1.05 1.02 0.99 0.92 0.93 0.91 0.90 0.93 1.02 1.06 1.10 1.17 1.16 1.18 1.21 1.20 1.20
0.28 0.31 0.33 0.30 0.30 0.29 0.28 0.26 0.26 0.26 0.25 0.27 0.30 0.29 0.29 0.33 0.34 0.37 0.45 0.46 0.49 0.53 0.69 0.61 0.41 0.42 0.59 0.63 0.66 0.76 0.80 0.79 0.91 0.89 0.87 0.92 0.97 0.99 0.94 0.96 1.03 1.05 1.08 1.05 1.05 1.09 1.13 1.14 1.15 1.14 1.13 1.08 1.06 1.07 1.13 1.15 1.18 1.20 1.21 1.24 1.26 1.28 1.29 1.22 1.16 1.11 1.00 0.90 0.83 0.75 0.67 0.63 0.65 0.65 0.69 0.68 0.73 0.82 0.88 0.93 1.05 1.11 1.16 1.16 1.13 1.14
0.27 0.31 0.31 0.28 0.28 0.27 0.27 0.26 0.27 0.28 0.28 0.25 0.28 0.32 0.33 0.35 0.37 0.38 0.41 0.43 0.37 0.33 0.60 0.68 0.34 0.32 0.51 0.52 0.59 0.68 0.70 0.73 0.83 0.86 0.90 0.91 0.93 0.98 0.96 0.99 1.02 1.03 1.05 1.11 1.12 1.14 1.13 1.15 1.12 1.09 1.08 1.06 1.06 1.13 1.17 1.17 1.16 1.18 1.16 1.11 1.09 1.05 1.01 0.99 0.95 0.92 0.88 0.81 0.78 0.72 0.68 0.68 0.66 0.63 0.68 0.80 0.86 0.89 0.96 1.02 1.01 1.03 1.08 1.11 1.11 1.14
0.28 0.29 0.29 0.29 0.27 0.27 0.26 0.25 0.29 0.30 0.28 0.25 0.35 0.37 0.38 0.38 0.36 0.39 0.42 0.41 0.43 0.54 0.64 0.63 0.48 0.32 0.31 0.43 0.60 0.69 0.66 0.68 0.73 0.78 0.87 0.92 0.93 0.95 0.98 1.01 1.02 1.04 1.07 1.08 1.10 1.13 1.16 1.16 1.11 1.01 1.04 1.07 1.10 1.10 1.05 1.01 1.03 1.03 1.01 0.99 0.96 0.93 0.87 0.85 0.85 0.82 0.82 0.74 0.71 0.69 0.69 0.68 0.68 0.69 0.70 0.78 0.84 0.93 0.96 0.93 0.94 0.96 0.99 1.03 1.06 1.08
0.29 0.28 0.28 0.26 0.27 0.26 0.25 0.28 0.31 0.34 0.28 0.29 0.36 0.44 0.42 0.44 0.45 0.45 0.42 0.40 0.44 0.41 0.37 0.48 0.50 0.33 0.27 0.38 0.56 0.66 0.57 0.61 0.65 0.71 0.78 0.87 0.93 0.95 0.98 1.00 1.02 1.04 1.06 1.08 1.09 1.10 1.12 1.11 1.09 1.05 1.01 1.10 1.07 0.93 0.86 0.96 1.00 0.97 0.96 0.93 0.90 0.86 0.85 0.84 0.83 0.79 0.78 0.76 0.74 0.71 0.69 0.67 0.72 0.74 0.78 0.83 0.89 0.88 0.91 0.86 0.91 0.93 0.97 1.02 1.08 1.11
0.29 0.30 0.30 0.30 0.27 0.26 0.29 0.31 0.33 0.31 0.25 0.29 0.38 0.46 0.45 0.47 0.47 0.45 0.41 0.40 0.40 0.31 0.25 0.34 0.43 0.27 0.27 0.33 0.40 0.59 0.56 0.55 0.60 0.69 0.77 0.83 0.89 0.94 0.97 1.01 1.02 1.02 1.04 1.09 1.12 1.14 1.14 1.12 1.08 1.06 1.06 1.04 0.96 0.91 0.98 0.98 0.96 0.94 0.94 0.91 0.90 0.86 0.86 0.86 0.85 0.82 0.77 0.74 0.71 0.68 0.68 0.66 0.68 0.74 0.77 0.81 0.82 0.84 0.87 0.86 0.90 0.95 0.98 1.02 1.05 1.10
0.29 0.34 0.35 0.30 0.28 0.30 0.30 0.30 0.30 0.31 0.30 0.35 0.35 0.35 0.38 0.38 0.40 0.42 0.42 0.40 0.35 0.23 0.23 0.35 0.41 0.33 0.23 0.28 0.33 0.36 0.41 0.45 0.53 0.69 0.79 0.86 0.91 0.96 1.00 1.02 1.01 0.97 1.00 1.06 1.10 1.12 1.13 1.12 1.06 1.05 1.00 0.98 0.96 0.99 0.99 0.93 0.93 0.94 0.93 0.91 0.85 0.85 0.88 0.91 0.87 0.80 0.71 0.70 0.69 0.67 0.67 0.66 0.64 0.68 0.71 0.71 0.74 0.79 0.80 0.80 0.83 0.88 0.94 1.02 1.06 1.10
0.28 0.31 0.29 0.32 0.34 0.32 0.32 0.30 0.33 0.35 0.35 0.34 0.31 0.31 0.31 0.32 0.38 0.37 0.36 0.39 0.27 0.22 0.27 0.32 0.38 0.40 0.22 0.24 0.31 0.42 0.51 0.56 0.58 0.58 0.65 0.75 0.83 0.90 0.97 1.02 1.03 0.98 0.99 1.05 1.09 1.08 1.09 1.04 1.00 1.02 0.97 0.95 0.98 0.99 0.96 0.94 0.94 0.94 0.92 0.88 0.84 0.85 0.88 0.87 0.82 0.76 0.71 0.69 0.70 0.72 0.70 0.67 0.68 0.69 0.70 0.70 0.70 0.76 0.76 0.80 0.82 0.89 0.93 0.95 1.01 1.08
0.24 0.27 0.30 0.32 0.38 0.32 0.30 0.28 0.31 0.32 0.32 0.30 0.30 0.29 0.23 0.24 0.25 0.22 0.27 0.23 0.22 0.20 0.27 0.32 0.39 0.34 0.29 0.28 0.32 0.40 0.49 0.58 0.64 0.66 0.69 0.74 0.80 0.88 0.95 1.00 1.03 0.98 0.99 1.03 1.05 1.05 1.03 0.96 0.92 0.93 0.94 0.96 0.97 0.96 0.96 0.94 0.93 0.92 0.90 0.87 0.82 0.81 0.81 0.76 0.74 0.71 0.70 0.71 0.73 0.73 0.71 0.71 0.73 0.75 0.76 0.76 0.76 0.80 0.81 0.83 0.85 0.86 0.88 0.92 0.92 0.95
0.24 0.29 0.29 0.31 0.32 0.34 0.31 0.24 0.27 0.26 0.30 0.29 0.27 0.27 0.22 0.19 0.18 0.16 0.20 0.23 0.21 0.24 0.28 0.29 0.40 0.28 0.33 0.34 0.38 0.38 0.45 0.57 0.66 0.70 0.75 0.80 0.83 0.86 0.93 0.99 1.01 0.97 0.98 1.01 1.02 0.99 0.96 0.93 0.91 0.93 0.96 0.97 1.00 1.00 0.98 0.96 0.93 0.91 0.89 0.87 0.82 0.77 0.78 0.75 0.70 0.67 0.67 0.70 0.71 0.73 0.74 0.76 0.77 0.77 0.78 0.80 0.80 0.83 0.86 0.88 0.88 0.91 0.92 0.92 0.94 0.94
0.19 0.19 0.24 0.27 0.24 0.32 0.30 0.28 0.30 0.29 0.30 0.30 0.31 0.27 0.25 0.22 0.18 0.15 0.17 0.15 0.16 0.19 0.25 0.34 0.26 0.23 0.22 0.27 0.47 0.49 0.55 0.59 0.69 0.77 0.80 0.85 0.92 0.93 0.98 1.02 1.01 0.97 0.98 1.01 1.01 0.98 0.94 0.91 0.89 0.91 0.97 1.00 1.02 1.01 0.99 0.97 0.94 0.92 0.88 0.84 0.80 0.77 0.75 0.71 0.67 0.67 0.68 0.72 0.74 0.75 0.78 0.79 0.80 0.78 0.79 0.82 0.84 0.84 0.85 0.89 0.90 0.93 0.97 0.97 0.98 0.99
0.21 0.22 0.28 0.31 0.32 0.33 0.32 0.35 0.35 0.33 0.31 0.33 0.33 0.32 0.26 0.24 0.27 0.19 0.23 0.21 0.20 0.21 0.22 0.27 0.23 0.28 0.26 0.44 0.47 0.52 0.54 0.58 0.65 0.70 0.77 0.78 0.89 0.96 0.97 0.98 0.98 0.97 0.98 1.00 1.02 1.02 0.99 0.93 0.92 0.95 0.99 1.03 1.04 1.02 1.00 0.97 0.95 0.92 0.86 0.83 0.81 0.76 0.72 0.69 0.67 0.67 0.69 0.72 0.76 0.78 0.77 0.79 0.79 0.81 0.82 0.82 0.85 0.87 0.89 0.90 0.92 0.94 0.99 1.01 1.02 1.05
0.21 0.19 0.28 0.31 0.34 0.34 0.35 0.37 0.37 0.37 0.25 0.32 0.32 0.27 0.29 0.36 0.32 0.29 0.30 0.30 0.28 0.23 0.20 0.30 0.26 0.28 0.34 0.34 0.39 0.46 0.47 0.51 0.58 0.63 0.70 0.75 0.84 0.91 0.91 0.97 1.00 0.99 0.99 1.00 1.04 1.05 1.01 0.95 0.96 0.98 1.01 1.05 1.06 1.02 0.97 0.97 0.97 0.91 0.86 0.83 0.79 0.75 0.71 0.68 0.68 0.69 0.71 0.74 0.75 0.78 0.79 0.79 0.79 0.80 0.79 0.78 0.79 0.82 0.86 0.90 0.94 0.96 0.99 1.03 1.04 1.04
0.20 0.20 0.27 0.28 0.29 0.35 0.40 0.39 0.38 0.38 0.40 0.34 0.28 0.32 0.39 0.42 0.39 0.31 0.24 0.27 0.24 0.19 0.23 0.25 0.21 0.22 0.22 0.18 0.35 0.40 0.38 0.43 0.50 0.56 0.65 0.76 0.83 0.84 0.89 0.95 0.98 0.97 1.01 1.05 1.10 1.11 1.06 0.99 0.98 1.01 1.05 1.07 1.06 1.02 1.00 0.99 0.99 0.93 0.89 0.85 0.80 0.75 0.69 0.68 0.69 0.70 0.72 0.73 0.74 0.77 0.78 0.80 0.82 0.81 0.81 0.81 0.80 0.84 0.84 0.88 0.93 0.97 0.97 0.99 1.05 1.08
0.24 0.20 0.25 0.29 0.32 0.37 0.40 0.38 0.36 0.39 0.40 0.34 0.33 0.42 0.30 0.29 0.28 0.32 0.28 0.21 0.20 0.18 0.19 0.21 0.23 0.23 0.23 0.21 0.26 0.29 0.31 0.33 0.41 0.52 0.59 0.64 0.71 0.77 0.86 0.93 0.99 1.02 1.05 1.06 1.08 1.10 1.05 1.01 1.01 1.04 1.06 1.10 1.10 1.07 1.04 1.03 1.00 0.94 0.91 0.90 0.84 0.75 0.71 0.70 0.71 0.73 0.75 0.75 0.76 0.77 0.78 0.80 0.82 0.83 0.82 0.83 0.86 0.88 0.89 0.89 0.92 0.95 0.99 1.03 1.09 1.12
0.27 0.20 0.24 0.31 0.31 0.36 0.38 0.36 0.29 0.34 0.40 0.40 0.40 0.36 0.38 0.34 0.30 0.26 0.27 0.27 0.23 0.20 0.18 0.19 0.23 0.18 0.27 0.24 0.26 0.28 0.31 0.34 0.39 0.45 0.49 0.60 0.69 0.76 0.83 0.90 0.95 0.97 1.00 1.04 1.07 1.07 1.07 1.06 1.05 1.07 1.08 1.09 1.07 1.03 1.03 1.02 0.99 0.94 0.93 0.89 0.84 0.78 0.73 0.72 0.71 0.73 0.72 0.75 0.75 0.77 0.79 0.80 0.81 0.82 0.83 0.86 0.89 0.92 0.95 0.97 0.97 0.98 1.00 1.03 1.08 1.12
0.25 0.25 0.20 0.29 0.34 0.34 0.29 0.33 0.31 0.33 0.32 0.34 0.34 0.33 0.35 0.35 0.38 0.33 0.31 0.26 0.23 0.21 0.19 0.18 0.16 0.19 0.25 0.32 0.30 0.31 0.33 0.37 0.39 0.41 0.49 0.60 0.71 0.79 0.86 0.91 0.94 0.97 0.99 1.02 1.04 1.07 1.10 1.09 1.08 1.10 1.13 1.14 1.11 1.08 1.05 1.01 0.98 0.96 0.95 0.90 0.86 0.76 0.72 0.70 0.73 0.73 0.72 0.74 0.75 0.76 0.76 0.77 0.80 0.81 0.85 0.88 0.92 0.94 0.99 1.01 1.02 1.04 1.05 1.06 1.06 1.08
0.23 0.24 0.20 0.27 0.28 0.28 0.30 0.37 0.37 0.36 0.36 0.34 0.34 0.33 0.35 0.32 0.30 0.26 0.24 0.30 0.28 0.24 0.21 0.19 0.16 0.21 0.28 0.36 0.35 0.34 0.38 0.39 0.44 0.45 0.49 0.59 0.68 0.77 0.84 0.91 0.95 0.97 1.00 1.03 1.07 1.11 1.12 1.12 1.11 1.14 1.16 1.16 1.10 1.04 1.01 1.01 1.00 0.97 0.93 0.90 0.86 0.80 0.74 0.71 0.73 0.73 0.72 0.74 0.76 0.77 0.78 0.80 0.81 0.83 0.84 0.85 0.89 0.91 0.96 1.00 1.02 1.05 1.07 1.04 1.06 1.08
0.27 0.27 0.24 0.23 0.26 0.29 0.33 0.39 0.44 0.43 0.40 0.38 0.38 0.35 0.38 0.37 0.35 0.30 0.23 0.26 0.28 0.27 0.29 0.26 0.20 0.19 0.31 0.35 0.38 0.39 0.41 0.43 0.45 0.47 0.48 0.56 0.66 0.74 0.81 0.89 0.96 1.00 1.02 1.04 1.09 1.13 1.15 1.16 1.15 1.14 1.13 1.11 1.06 1.02 1.01 1.02 0.99 0.97 0.94 0.90 0.85 0.80 0.77 0.75 0.74 0.75 0.74 0.74 0.76 0.78 0.81 0.80 0.80 0.82 0.83 0.83 0.85 0.86 0.90 0.97 1.02 1.06 1.04 1.02 1.03 1.06
0.34 0.26 0.24 0.26 0.32 0.35 0.37 0.41 0.44 0.43 0.42 0.38 0.38 0.39 0.38 0.34 0.35 0.33 0.31 0.32 0.27 0.29 0.26 0.26 0.21 0.22 0.33 0.39 0.41 0.43 0.45 0.46 0.50 0.50 0.49 0.54 0.60 0.68 0.76 0.83 0.89 0.97 1.01 1.06 1.12 1.16 1.18 1.18 1.17 1.14 1.12 1.10 1.05 1.01 1.00 1.01 1.01 0.98 0.93 0.87 0.85 0.81 0.80 0.78 0.77 0.74 0.72 0.74 0.77 0.79 0.79 0.78 0.80 0.80 0.82 0.81 0.83 0.83 0.87 0.92 0.98 1.03 1.03 1.02 1.01 1.01
0.24 0.28 0.26 0.25 0.25 0.28 0.31 0.35 0.37 0.42 0.41 0.38 0.36 0.39 0.40 0.40 0.39 0.38 0.37 0.37 0.28 0.29 0.29 0.25 0.19 0.21 0.33 0.38 0.42 0.45 0.46 0.45 0.46 0.51 0.54 0.53 0.58 0.63 0.69 0.77 0.85 0.93 0.98 1.02 1.06 1.12 1.16 1.14 1.12 1.12 1.12 1.08 1.02 1.00 1.01 1.02 0.99 0.94 0.88 0.87 0.85 0.84 0.84 0.81 0.79 0.73 0.73 0.76 0.77 0.78 0.77 0.77 0.80 0.80 0.81 0.81 0.82 0.83 0.86 0.89 0.92 0.98 1.00 1.01 0.98 1.00
0.28 0.29 0.26 0.21 0.20 0.19 0.20 0.22 0.24 0.29 0.34 0.38 0.40 0.39 0.41 0.39 0.38 0.36 0.31 0.33 0.26 0.31 0.31 0.26 0.23 0.28 0.34 0.36 0.38 0.41 0.44 0.45 0.50 0.52 0.55 0.57 0.59 0.62 0.68 0.73 0.79 0.86 0.89 0.96 1.05 1.12 1.11 1.13 1.14 1.13 1.11 1.07 1.02 0.99 1.01 1.01 0.98 0.91 0.88 0.90 0.91 0.88 0.85 0.81 0.78 0.74 0.74 0.77 0.76 0.76 0.76 0.78 0.80 0.80 0.80 0.82 0.85 0.86 0.87 0.88 0.89 0.91 0.95 0.98 0.94 0.95
0.33 0.35 0.31 0.28 0.25 0.23 0.25 0.29 0.36 0.37 0.37 0.33 0.36 0.37 0.38 0.41 0.41 0.40 0.38 0.33 0.28 0.33 0.30 0.29 0.30 0.30 0.30 0.33 0.34 0.35 0.40 0.41 0.44 0.50 0.51 0.54 0.59 0.65 0.70 0.74 0.78 0.83 0.88 0.94 1.04 1.12 1.16 1.12 1.10 1.12 1.11 1.04 1.00 1.01 1.03 1.01 0.95 0.90 0.90 0.91 0.93 0.90 0.86 0.82 0.77 0.74 0.74 0.77 0.76 0.75 0.76 0.78 0.80 0.82 0.82 0.85 0.88 0.89 0.88 0.87 0.89 0.90 0.89 0.92 0.92 0.92
0.35 0.30 0.32 0.32 0.31 0.33 0.35 0.34 0.37 0.39 0.34 0.37 0.36 0.37 0.40 0.40 0.40 0.38 0.34 0.32 0.39 0.33 0.28 0.33 0.36 0.31 0.29 0.32 0.35 0.38 0.41 0.44 0.47 0.51 0.54 0.57 0.60 0.64 0.69 0.74 0.80 0.84 0.90 0.99 1.05 1.07 1.06 1.08 1.10 1.10 1.07 1.01 0.99 1.03 1.04 1.01 0.96 0.93 0.92 0.91 0.92 0.90 0.85 0.82 0.76 0.74 0.75 0.76 0.76 0.76 0.77 0.79 0.82 0.83 0.84 0.86 0.89 0.88 0.87 0.86 0.86 0.88 0.91 0.90 0.88 0.89
0.35 0.30 0.34 0.33 0.32 0.35 0.37 0.38 0.40 0.39 0.38 0.38 0.39 0.39 0.38 0.41 0.40 0.37 0.37 0.40 0.39 0.33 0.30 0.37 0.37 0.32 0.31 0.33 0.37 0.39 0.41 0.44 0.46 0.49 0.54 0.61 0.65 0.67 0.69 0.71 0.74 0.79 0.86 0.93 1.00 1.05 1.06 1.06 1.08 1.07 1.02 0.99 1.00 1.01 1.00 0.97 0.95 0.95 0.97 0.96 0.94 0.90 0.85 0.83 0.77 0.73 0.74 0.76 0.76 0.76 0.78 0.81 0.84 0.85 0.86 0.87 0.88 0.88 0.86 0.84 0.84 0.86 0.89 0.89 0.88 0.89
0.37 0.34 0.37 0.36 0.34 0.35 0.37 0.39 0.41 0.38 0.39 0.40 0.40 0.41 0.42 0.42 0.41 0.42 0.42 0.43 0.41 0.39 0.40 0.39 0.37 0.34 0.32 0.35 0.39 0.40 0.44 0.45 0.47 0.52 0.54 0.54 0.56 0.63 0.68 0.72 0.74 0.77 0.82 0.90 0.98 1.04 1.07 1.09 1.08 1.03 0.98 0.97 0.98 0.98 0.97 0.96 0.95 0.95 0.94 0.92 0.91 0.87 0.87 0.83 0.76 0.73 0.75 0.75 0.76 0.78 0.80 0.83 0.85 0.87 0.89 0.90 0.90 0.90 0.88 0.85 0.83 0.83 0.86 0.88 0.89 0.89
0.38 0.36 0.41 0.38 0.35 0.35 0.38 0.41 0.41 0.40 0.40 0.39 0.42 0.43 0.44 0.44 0.44 0.44 0.43 0.43 0.43 0.41 0.41 0.41 0.38 0.32 0.35 0.41 0.40 0.42 0.44 0.45 0.45 0.43 0.46 0.52 0.58 0.62 0.66 0.69 0.73 0.77 0.84 0.93 1.01 1.04 1.07 1.09 1.06 1.00 0.95 0.95 0.96 0.97 0.97 0.97 0.97 0.97 0.95 0.91 0.87 0.84 0.85 0.81 0.75 0.75 0.75 0.74 0.77 0.80 0.84 0.87 0.88 0.91 0.91 0.93 0.96 0.96 0.92 0.87 0.83 0.80 0.83 0.89 0.91 0.90
0.42 0.47 0.45 0.40 0.34 0.35 0.40 0.41 0.42 0.43 0.43 0.41 0.41 0.42 0.42 0.41 0.39 0.41 0.40 0.44 0.40 0.38 0.39 0.37 0.32 0.28 0.34 0.38 0.39 0.38 0.39 0.39 0.39 0.44 0.48 0.52 0.58 0.61 0.61 0.65 0.71 0.77 0.85 0.92 0.99 1.04 1.06 1.05 1.00 0.93 0.92 0.95 0.97 0.98 0.99 0.97 0.96 0.95 0.90 0.87 0.81 0.80 0.80 0.77 0.75 0.74 0.75 0.77 0.79 0.82 0.85 0.87 0.91 0.93 0.95 0.98 0.97 0.96 0.93 0.88 0.84 0.80 0.81 0.88 0.91 0.92
0.44 0.44 0.41 0.41 0.36 0.36 0.42 0.44 0.43 0.43 0.41 0.37 0.37 0.40 0.42 0.43 0.44 0.45 0.45 0.45 0.43 0.42 0.34 0.28 0.27 0.33 0.36 0.39 0.33 0.32 0.35 0.40 0.42 0.46 0.49 0.53 0.58 0.60 0.60 0.64 0.70 0.77 0.84 0.92 0.97 1.01 1.03 1.00 0.94 0.92 0.94 0.97 0.99 1.00 0.99 0.99 0.95 0.90 0.86 0.80 0.77 0.77 0.74 0.72 0.73 0.73 0.74 0.77 0.79 0.81 0.85 0.90 0.93 0.95 0.98 1.02 1.01 0.96 0.92 0.88 0.84 0.81 0.84 0.89 0.94 0.95
0.45 0.42 0.40 0.44 0.35 0.37 0.42 0.43 0.44 0.38 0.30 0.30 0.44 0.48 0.46 0.42 0.43 0.39 0.39 0.39 0.41 0.40 0.35 0.35 0.33 0.36 0.38 0.37 0.33 0.30 0.32 0.38 0.45 0.52 0.56 0.55 0.55 0.58 0.62 0.65 0.69 0.75 0.84 0.93 0.99 1.01 1.02 0.98 0.95 0.94 0.97 0.99 1.02 1.02 1.02 1.00 0.92 0.86 0.82 0.78 0.78 0.75 0.73 0.71 0.72 0.73 0.74 0.77 0.80 0.84 0.88 0.93 0.96 0.97 1.00 1.05 1.02 0.94 0.91 0.90 0.85 0.83 0.89 0.94 0.96 0.96
0.43 0.43 0.40 0.43 0.37 0.36 0.42 0.42 0.36 0.29 0.29 0.43 0.50 0.52 0.51 0.48 0.45 0.42 0.43 0.43 0.43 0.41 0.37 0.34 0.35 0.36 0.37 0.38 0.39 0.39 0.41 0.46 0.52 0.54 0.57 0.60 0.61 0.60 0.61 0.65 0.69 0.74 0.80 0.89 0.95 0.98 0.97 0.94 0.94 0.96 1.00 1.03 1.04 1.03 1.00 0.94 0.88 0.84 0.80 0.79 0.76 0.75 0.72 0.72 0.73 0.75 0.77 0.78 0.82 0.87 0.90 0.93 0.95 0.97 1.01 1.04 0.98 0.92 0.91 0.89 0.85 0.84 0.89 0.94 0.95 0.96
0.41 0.41 0.43 0.41 0.42 0.41 0.38 0.37 0.27 0.28 0.41 0.47 0.49 0.51 0.55 0.51 0.48 0.45 0.40 0.41 0.40 0.37 0.36 0.33 0.34 0.35 0.37 0.41 0.45 0.49 0.51 0.55 0.58 0.60 0.60 0.63 0.64 0.63 0.62 0.64 0.70 0.75 0.79 0.86 0.93 0.98 0.95 0.94 0.95 0.97 1.00 1.06 1.04 1.00 0.92 0.84 0.83 0.79 0.75 0.78 0.74 0.74 0.74 0.76 0.77 0.79 0.83 0.83 0.85 0.88 0.92 0.93 0.94 0.97 1.01 1.01 0.95 0.92 0.89 0.87 0.86 0.85 0.90 0.93 0.97 1.00
0.43 0.44 0.43 0.38 0.44 0.33 0.36 0.33 0.32 0.42 0.38 0.42 0.41 0.42 0.43 0.40 0.41 0.38 0.31 0.36 0.39 0.38 0.35 0.33 0.34 0.36 0.39 0.43 0.49 0.53 0.56 0.57 0.52 0.55 0.64 0.64 0.64 0.68 0.69 0.71 0.76 0.81 0.88 0.98 1.01 0.96 0.97 0.98 1.00 1.03 1.06 1.03 0.97 0.88 0.83 0.82 0.80 0.74 0.73 0.74 0.74 0.73 0.76 0.78 0.79 0.82 0.86 0.87 0.88 0.90 0.92 0.93 0.94 0.96 0.99 0.97 0.92 0.90 0.88 0.87 0.88 0.91 0.96 0.94 0.95 0.94
0.47 0.38 0.44 0.37 0.39 0.41 0.34 0.31 0.32 0.30 0.25 0.32 0.39 0.46 0.50 0.50 0.48 0.48 0.40 0.36 0.41 0.39 0.39 0.37 0.35 0.38 0.42 0.46 0.50 0.56 0.60 0.50 0.46 0.52 0.61 0.66 0.70 0.70 0.75 0.78 0.81 0.88 0.95 0.99 0.99 1.00 1.00 1.02 1.04 1.03 0.98 0.92 0.85 0.82 0.82 0.80 0.76 0.71 0.70 0.71 0.72 0.73 0.76 0.78 0.79 0.84 0.88 0.88 0.88 0.89 0.89 0.91 0.93 0.95 0.96 0.93 0.90 0.90 0.90 0.90 0.93 0.94 0.98 0.94 0.92 0.90
0.49 0.49 0.46 0.39 0.38 0.38 0.35 0.29 0.28 0.25 0.29 0.38 0.41 0.46 0.51 0.52 0.50 0.50 0.39 0.30 0.38 0.40 0.40 0.39 0.39 0.43 0.44 0.45 0.51 0.56 0.50 0.42 0.45 0.52 0.62 0.67 0.70 0.72 0.72 0.75 0.80 0.87 0.94 0.97 0.96 0.96 1.00 1.01 0.99 0.95 0.92 0.86 0.78 0.78 0.80 0.80 0.76 0.70 0.67 0.69 0.71 0.74 0.75 0.78 0.81 0.86 0.87 0.88 0.90 0.89 0.88 0.91 0.94 0.95 0.93 0.91 0.91 0.92 0.91 0.92 0.93 0.96 0.99 0.97 0.94 0.91
0.44 0.45 0.44 0.39 0.36 0.37 0.36 0.32 0.29 0.33 0.32 0.41 0.46 0.48 0.50 0.53 0.53 0.44 0.28 0.27 0.39 0.39 0.40 0.41 0.41 0.43 0.46 0.50 0.54 0.54 0.48 0.43 0.47 0.54 0.64 0.69 0.73 0.76 0.76 0.77 0.80 0.86 0.92 0.98 1.01 1.01 0.99 0.98 0.93 0.88 0.82 0.77 0.73 0.79 0.83 0.84 0.78 0.70 0.68 0.71 0.74 0.75 0.78 0.82 0.85 0.90 0.92 0.92 0.92 0.91 0.89 0.93 0.94 0.94 0.93 0.92 0.93 0.93 0.94 0.96 0.97 0.97 0.97 0.98 0.98 0.96
0.40 0.42 0.43 0.38 0.39 0.39 0.37 0.36 0.37 0.38 0.45 0.49 0.48 0.52 0.51 0.54 0.47 0.32 0.25 0.34 0.43 0.43 0.44 0.44 0.43 0.47 0.51 0.50 0.53 0.45 0.55 0.57 0.60 0.66 0.70 0.75 0.74 0.76 0.81 0.85 0.89 0.92 0.93 0.96 0.97 0.99 0.95 0.91 0.86 0.79 0.75 0.74 0.78 0.85 0.88 0.86 0.79 0.74 0.75 0.77 0.77 0.77 0.84 0.91 0.95 0.96 0.94 0.93 0.93 0.91 0.90 0.93 0.94 0.92 0.93 0.94 0.93 0.94 0.95 0.99 0.99 0.98 0.99 1.00 1.02 1.03
0.41 0.42 0.43 0.42 0.39 0.38 0.40 0.36 0.36 0.40 0.46 0.50 0.51 0.51 0.56 0.46 0.32 0.30 0.42 0.50 0.48 0.46 0.48 0.47 0.46 0.51 0.54 0.54 0.56 0.58 0.63 0.66 0.68 0.71 0.73 0.75 0.76 0.79 0.83 0.87 0.90 0.93 0.97 0.97 0.96 0.93 0.88 0.86 0.82 0.80 0.81 0.83 0.87 0.90 0.90 0.89 0.83 0.81 0.83 0.83 0.80 0.84 0.94 1.01 1.01 0.98 0.93 0.91 0.91 0.92 0.92 0.92 0.93 0.94 0.94 0.97 1.00 1.01 1.05 1.07 1.04 1.04 1.05 1.05 1.05 1.03
0.42 0.39 0.38 0.38 0.43 0.42 0.41 0.36 0.34 0.29 0.43 0.52 0.56 0.52 0.55 0.40 0.42 0.49 0.51 0.51 0.52 0.51 0.49 0.51 0.53 0.56 0.58 0.57 0.62 0.65 0.65 0.67 0.70 0.72 0.75 0.78 0.80 0.82 0.85 0.87 0.88 0.89 0.89 0.90 0.89 0.91 0.88 0.84 0.82 0.81 0.81 0.87 0.90 0.92 0.93 0.92 0.87 0.87 0.89 0.87 0.90 0.98 1.04 1.03 1.00 0.94 0.90 0.88 0.88 0.90 0.91 0.91 0.92 0.95 1.02 1.00 1.00 1.02 1.02 1.04 1.08 1.12 1.11 1.10 1.07 1.04
0.50 0.39 0.40 0.42 0.46 0.37 0.37 0.34 0.34 0.43 0.52 0.59 0.52 0.43 0.49 0.49 0.56 0.55 0.52 0.47 0.53 0.53 0.53 0.55 0.59 0.62 0.65 0.63 0.65 0.67 0.69 0.69 0.72 0.76 0.77 0.80 0.83 0.86 0.88 0.90 0.91 0.91 0.90 0.91 0.90 0.92 0.91 0.87 0.85 0.84 0.87 0.91 0.94 0.96 0.98 0.96 0.92 0.93 0.92 0.92 1.02 1.07 1.04 0.99 0.96 0.93 0.89 0.87 0.87 0.89 0.89 0.90 0.93 0.97 0.97 0.97 0.98 0.98 1.00 1.00 1.03 1.08 1.12 1.13 1.09 1.03
0.53 0.45 0.48 0.41 0.50 0.43 0.41 0.44 0.51 0.56 0.57 0.59 0.58 0.54 0.56 0.59 0.59 0.57 0.54 0.52 0.50 0.53 0.62 0.60 0.62 0.68 0.71 0.73 0.73 0.73 0.70 0.73 0.74 0.77 0.76 0.78 0.81 0.83 0.84 0.86 0.87 0.88 0.88 0.88 0.88 0.90 0.91 0.87 0.85 0.86 0.88 0.92 0.94 0.98 1.00 1.01 0.97 0.95 0.92 1.00 1.09 1.03 0.98 0.96 0.94 0.91 0.87 0.86 0.87 0.88 0.89 0.90 0.90 0.92 0.94 0.96 1.01 1.01 1.01 0.99 1.03 1.05 1.09 1.13 1.09 1.05
0.54 0.55 0.58 0.51 0.49 0.54 0.56 0.55 0.57 0.57 0.57 0.59 0.62 0.62 0.59 0.59 0.62 0.62 0.60 0.58 0.60 0.62 0.66 0.64 0.69 0.72 0.76 0.80 0.76 0.78 0.78 0.78 0.76 0.77 0.78 0.79 0.80 0.83 0.84 0.84 0.84 0.85 0.85 0.85 0.85 0.86 0.87 0.89 0.89 0.87 0.86 0.91 0.96 0.99 1.03 1.04 1.03 0.97 0.99 1.09 1.05 0.99 0.95 0.93 0.92 0.89 0.86 0.87 0.85 0.85 0.86 0.84 0.87 0.91 0.94 0.97 0.99 0.99 1.01 1.00 1.01 1.05 1.09 1.10 1.06 1.06
0.54 0.56 0.52 0.45 0.53 0.44 0.41 0.56 0.54 0.55 0.57 0.58 0.59 0.63 0.64 0.64 0.63 0.66 0.64 0.63 0.66 0.69 0.71 0.75 0.77 0.79 0.81 0.83 0.82 0.80 0.80 0.80 0.78 0.78 0.79 0.79 0.78 0.79 0.79 0.79 0.81 0.82 0.81 0.79 0.82 0.83 0.84 0.86 0.85 0.85 0.87 0.88 0.96 0.99 1.02 1.03 1.04 1.03 1.04 1.00 0.97 0.94 0.93 0.92 0.92 0.89 0.87 0.85 0.84 0.84 0.84 0.83 0.86 0.90 0.92 0.94 0.98 1.00 1.01 1.01 1.03 1.05 1.06 1.07 1.05 1.04
0.48 0.61 0.51 0.48 0.47 0.42 0.43 0.50 0.52 0.53 0.54 0.56 0.57 0.56 0.58 0.63 0.67 0.69 0.70 0.71 0.72 0.76 0.78 0.79 0.81 0.81 0.84 0.82 0.83 0.80 0.78 0.80 0.77 0.76 0.76 0.76 0.76 0.76 0.76 0.76 0.77 0.77 0.78 0.78 0.79 0.81 0.82 0.81 0.80 0.81 0.83 0.85 0.91 0.95 0.98 1.00 1.02 1.03 1.01 0.97 0.94 0.93 0.94 0.93 0.91 0.88 0.86 0.85 0.83 0.82 0.82 0.85 0.88 0.92 0.95 0.95 0.96 0.97 0.98 0.99 1.02 1.03 1.06 1.06 1.04 1.01
0.58 0.60 0.46 0.49 0.44 0.48 0.51 0.54 0.52 0.51 0.53 0.54 0.56 0.60 0.61 0.64 0.68 0.69 0.70 0.72 0.75 0.75 0.77 0.81 0.83 0.81 0.82 0.81 0.82 0.80 0.77 0.78 0.77 0.76 0.75 0.75 0.74 0.72 0.72 0.73 0.74 0.73 0.74 0.74 0.76 0.77 0.75 0.75 0.74 0.75 0.76 0.80 0.87 0.89 0.93 0.98 1.01 1.02 0.99 0.97 0.96 0.96 0.94 0.92 0.90 0.89 0.87 0.84 0.82 0.82 0.85 0.89 0.94 0.96 0.97 0.99 0.98 0.99 1.01 1.02 1.06 1.08 1.11 1.12 1.10 1.08
0.55 0.50 0.53 0.49 0.43 0.41 0.42 0.48 0.51 0.41 0.41 0.49 0.54 0.58 0.61 0.65 0.68 0.71 0.72 0.72 0.74 0.75 0.77 0.75 0.78 0.83 0.83 0.83 0.82 0.79 0.74 0.74 0.75 0.74 0.71 0.70 0.70 0.69 0.70 0.70 0.71 0.72 0.73 0.75 0.75 0.74 0.72 0.72 0.71 0.72 0.76 0.81 0.85 0.88 0.91 0.95 0.99 1.00 0.99 0.98 0.98 0.97 0.94 0.93 0.91 0.87 0.85 0.85 0.84 0.85 0.91 0.97 0.97 0.97 0.97 0.98 0.99 0.99 1.01 1.09 1.10 1.13 1.11 1.07 1.09 1.11
0.52 0.55 0.51 0.45 0.42 0.40 0.50 0.55 0.55 0.53 0.51 0.52 0.54 0.59 0.63 0.65 0.66 0.67 0.69 0.71 0.74 0.76 0.77 0.75 0.75 0.77 0.78 0.79 0.80 0.76 0.73 0.72 0.71 0.72 0.69 0.69 0.70 0.72 0.72 0.72 0.70 0.70 0.70 0.71 0.69 0.69 0.69 0.71 0.74 0.75 0.76 0.80 0.85 0.87 0.90 0.93 0.97 0.99 1.00 0.99 0.98 0.97 0.96 0.93 0.89 0.86 0.86 0.85 0.86 0.91 0.95 0.95 0.94 0.97 0.97 0.98 1.00 1.01 1.00 1.02 1.08 1.12 1.13 1.12 1.11 1.12
Wind_Speed
7 9 9 10 9 9 10 9 8 8 10 9 8 9 10 10 9 8 7 5 5 5 4 3 4 4 3 3 2 2 3 2 2 3 3 4 5 4 4 3 3 2 1 1 1 1 1 1 1 1 2 2 2 3 3 3 4 4 5 5 6 7 8 9 10 10 12 14 15 15 16 16 16 17 18 19 20 21 22 22 22 22 23 23 23 23
8 9 10 9 9 9 9 9 9 9 10 10 9 9 9 10 9 8 7 7 7 6 5 5 5 4 4 3 2 2 3 3 2 2 3 4 4 4 3 3 2 1 1 1 1 1 1 1 1 1 1 2 2 3 3 4 4 5 6 7 8 8 9 10 11 12 14 14 14 15 16 17 17 18 19 20 21 22 22 23 22 22 22 22 21 21
8 9 9 8 8 8 7 8 9 8 9 10 10 10 9 9 8 7 7 7 7 7 7 7 6 4 5 4 3 3 4 3 2 2 2 3 4 4 4 3 2 1 0 0 0 1 1 0 0 0 1 1 2 3 4 4 5 5 6 7 8 8 9 10 11 12 13 14 14 15 17 18 18 19 20 21 22 23 23 23 23 23 23 23 23 23
8 8 8 7 9 8 7 7 7 7 8 10 10 11 11 11 11 10 8 7 7 7 8 8 6 5 5 5 5 5 5 4 4 3 3 3 4 4 4 3 3 2 2 1 1 0 0 0 0 1 1 2 3 3 4 5 5 6 7 7 7 8 9 10 10 12 13 14 15 16 17 18 20 21 21 22 23 23 23 23 23 24 24 24 25 25
8 7 7 7 8 8 7 7 8 7 8 9 11 10 10 12 12 10 10 9 7 7 8 7 5 6 7 8 7 7 6 6 6 6 5 5 5 4 4 4 3 3 2 2 2 1 1 1 1 1 2 2 3 3 4 6 6 7 8 8 8 8 9 9 11 12 13 14 16 17 18 19 20 21 22 22 23 24 24 24 24 24 25 25 25 26
7 7 8 7 7 7 7 7 8 8 7 8 10 10 10 11 10 9 10 11 9 9 10 8 6 7 8 10 9 7 8 8 7 8 8 7 7 6 6 5 5 4 3 3 2 2 2 2 2 2 2 3 3 4 5 6 7 8 8 8 9 9 10 11 13 14 14 15 16 18 19 19 20 21 21 22 23 24 24 24 25 25 25 25 26 26
7 7 8 7 7 7 6 6 7 7 7 7 9 9 9 10 10 10 11 11 10 9 9 9 9 7 7 10 11 9 10 11 9 10 10 8 8 8 8 7 6 5 4 4 3 3 3 3 3 3 3 3 4 4 5 7 8 9 9 9 10 11 12 13 14 15 15 16 17 18 19 20 20 21 22 22 23 23 23 24 25 25 25 26 26 26
8 8 8 8 7 6 7 6 7 7 7 6 6 8 9 10 11 11 11 10 9 8 8 9 10 9 8 9 10 10 11 12 12 12 11 10 10 10 10 9 8 7 6 5 5 4 4 4 4 4 3 4 4 4 6 7 8 9 10 10 11 12 13 14 15 15 16 17 18 18 19 19 20 21 21 22 22 22 23 24 24 25 26 26 27 27
9 9 9 8 6 6 7 5 6 7 5 5 5 6 7 8 8 9 9 8 8 8 9 11 10 9 9 9 8 10 12 13 14 14 13 12 12 12 11 11 10 9 8 7 6 6 6 5 5 4 4 4 4 5 6 8 9 9 10 11 12 13 14 15 16 17 17 18 18 19 19 20 20 21 21 21 21 22 22 23 24 25 25 26 27 27
10 9 9 8 7 6 5 4 6 6 5 5 5 4 4 5 5 7 8 8 8 9 10 11 12 11 10 9 9 9 11 13 14 14 13 13 13 13 13 12 11 10 9 8 8 7 7 6 5 5 4 5 5 6 7 8 9 10 11 12 13 14 15 16 17 18 19 19 19 20 20 20 21 21 21 21 22 22 22 23 24 24 25 25 26 26
9 9 9 8 6 6 5 4 5 6 6 7 6 5 4 4 5 6 8 8 9 10 11 11 13 13 11 10 10 9 10 11 12 12 12 13 14 14 14 13 12 11 10 9 9 8 7 6 6 6 6 6 6 7 7 8 9 11 12 13 14 15 16 17 18 19 19 20 20 20 21 21 22 22 22 22 22 22 23 23 24 24 25 25 25 26
9 9 9 8 7 7 6 5 5 6 6 7 6 7 5 4 5 6 7 9 10 10 10 11 12 13 13 12 10 10 9 9 11 12 12 14 14 14 15 15 13 12 11 10 10 9 8 7 7 7 7 6 7 7 8 9 10 12 13 14 15 16 17 18 19 20 20 20 20 20 21 22 22 22 22 22 23 23 24 24 25 25 25 25 26 26
9 9 9 8 8 9 8 6 5 6 6 6 7 8 6 5 6 7 7 9 10 10 9 10 11 12 14 15 13 12 11 10 11 12 13 14 14 15 16 16 14 13 12 12 11 10 9 8 8 8 8 7 8 8 9 10 11 13 14 15 16 17 18 19 20 21 21 21 21 21 21 22 22 22 22 22 23 23 24 24 25 25 26 26 26 27
9 9 10 10 9 10 9 8 7 7 7 8 8 8 7 6 7 8 7 8 10 9 8 9 10 11 13 14 13 13 13 12 13 13 14 15 15 16 17 16 15 14 14 13 12 11 10 9 9 9 9 8 9 9 9 10 12 14 15 16 17 18 19 20 20 21 21 21 21 21 21 21 22 22 22 22 23 24 24 25 26 26 26 26 27 27
10 10 11 10 10 10 10 8 6 6 7 8 7 7 8 7 8 8 7 8 8 7 7 8 9 10 10 10 10 11 11 11 13 14 15 15 15 16 17 17 16 15 15 14 13 12 11 10 10 10 9 9 9 10 10 11 13 15 16 17 18 19 19 20 21 21 21 21 21 21 21 21 21 22 22 23 23 24 25 25 26 26 26 26 27 27
11 10 10 10 9 10 10 9 7 6 7 7 7 7 8 8 7 7 7 7 7 6 7 8 9 10 10 10 11 11 12 12 13 14 16 16 16 15 16 16 17 16 16 15 14 14 12 11 11 11 10 10 10 11 11 13 14 15 16 17 19 19 20 21 21 21 22 22 21 21 21 21 21 22 22 23 24 25 25 26 26 26 26 26 26 26
11 11 10 10 10 9 10 9 8 8 7 7 8 8 7 7 6 6 6 6 7 8 8 8 10 10 10 10 9 10 11 12 13 14 16 17 17 16 16 16 18 18 17 16 15 14 13 12 12 12 11 11 11 12 13 14 15 16 17 18 19 20 20 21 22 22 22 22 22 21 21 21 21 22 23 24 24 25 26 26 26 26 26 26 26 26
12 11 10 11 10 9 10 9 7 7 7 8 8 8 6 6 6 6 6 6 7 9 8 9 10 10 9 8 7 8 11 11 12 13 14 16 17 18 17 17 18 19 18 17 16 15 14 13 13 13 12 12 12 13 14 14 15 17 18 19 20 20 21 21 22 22 23 22 22 22 21 21 22 22 23 24 25 26 26 26 26 26 26 26 26 25
13 11 10 11 11 11 11 10 9 7 8 8 8 7 7 7 7 7 7 7 8 9 8 8 10 10 9 9 8 9 11 10 11 12 14 16 17 18 18 18 19 19 18 17 17 16 15 15 14 14 13 13 13 14 15 15 16 17 19 20 20 21 21 22 23 23 23 22 22 22 22 22 22 22 23 24 25 26 26 27 27 27 26 26 26 25
13 13 11 11 12 12 12 12 12 10 8 7 7 7 8 8 7 7 7 7 8 7 7 7 8 9 10 9 10 10 10 9 9 11 13 15 17 17 17 18 19 19 18 18 18 17 17 16 15 14 14 14 14 15 15 16 17 18 19 20 21 21 22 23 23 23 23 22 22 22 22 22 22 23 24 25 25 26 26 27 27 27 26 26 25 25
14 14 13 11 12 13 13 13 13 12 10 10 10 9 9 8 7 7 7 7 7 7 7 8 8 9 9 9 10 11 10 9 9 10 12 14 15 16 16 17 18 19 18 18 18 18 17 16 16 15 14 15 15 16 16 17 17 18 19 20 21 22 23 23 23 23 23 23 22 22 22 23 23 23 24 25 25 26 26 27 27 26 26 26 25 25
16 15 14 13 13 14 13 12 13 13 12 11 11 11 10 8 7 7 7 7 8 7 7 8 9 10 9 9 10 10 10 10 10 10 11 13 14 15 16 18 18 18 18 18 19 18 18 17 16 15 15 15 16 16 17 17 18 19 20 21 22 23 23 23 23 23 23 23 22 23 23 23 23 24 25 25 25 26 26 27 27 26 26 26 25 25
15 15 15 14 14 14 13 12 13 13 12 11 11 11 10 9 9 9 9 8 7 8 8 7 9 10 9 10 11 11 11 12 12 12 11 12 14 15 16 17 18 18 18 19 19 19 18 17 16 16 16 16 16 17 18 18 19 20 21 22 23 23 23 23 24 24 24 23 23 23 23 24 24 24 25 25 26 26 26 27 27 26 26 26 26 26
16 15 15 14 13 13 13 12 13 13 13 13 12 11 11 10 10 10 9 8 8 8 8 8 9 10 10 11 11 12 13 13 13 13 13 12 13 15 16 17 17 18 18 19 19 18 18 17 17 16 16 16 17 18 18 19 20 21 21 22 23 24 24 24 24 24 24 24 23 24 24 24 24 24 25 25 26 26 27 27 27 27 26 26 26 26
17 16 15 14 12 12 13 12 12 14 15 14 12 12 12 11 9 9 9 9 10 10 9 9 11 12 11 11 12 12 13 14 14 14 14 14 14 14 15 16 17 17 17 18 19 18 18 18 17 17 17 17 18 19 19 20 21 21 22 23 24 24 24 24 24 24 24 24 24 24 24 24 24 24 25 25 26 27 28 28 28 27 26 26 25 26
17 17 17 16 15 14 14 13 13 14 14 14 13 13 13 12 11 11 10 10 11 11 10 11 13 14 13 13 14 14 13 15 15 15 15 16 15 15 16 16 16 16 17 18 18 18 19 19 18 18 17 18 19 19 20 20 21 21 22 24 24 24 24 24 25 25 24 24 24 24 24 24 24 24 25 25 26 27 28 28 28 27 26 25 25 26
16 17 18 19 18 18 17 16 15 14 14 15 15 14 14 13 12 12 11 12 13 12 13 15 15 16 15 15 16 16 15 16 16 15 16 17 17 17 17 17 17 17 18 18 19 19 19 19 18 18 18 19 19 20 20 21 21 22 23 24 25 25 25 25 25 25 25 25 25 25 24 24 24 25 25 26 27 28 28 29 28 27 26 25 25 25
17 18 18 18 18 18 17 16 16 15 15 15 14 14 14 13 13 13 14 14 13 13 15 16 15 17 18 17 17 18 17 17 17 17 17 17 17 18 18 18 18 18 18 18 19 19 19 19 19 19 19 19 20 20 21 21 22 22 24 25 25 25 25 25 25 25 25 25 25 25 25 25 25 25 26 27 28 28 28 29 28 27 26 25 25 25
17 17 17 17 17 16 16 15 15 15 14 14 14 14 14 14 15 16 16 15 14 16 18 16 15 18 20 19 19 20 18 18 19 19 19 19 18 18 18 19 19 19 19 19 20 20 20 19 19 19 19 20 20 20 21 21 22 23 24 25 26 26 25 25 25 25 25 25 25 25 25 25 25 26 26 27 28 28 29 29 28 27 26 26 26 26
17 17 17 18 16 15 15 15 15 15 14 13 14 14 14 15 16 17 16 16 17 19 20 18 19 21 21 20 21 21 19 19 20 20 20 19 19 18 19 20 20 20 20 20 20 20 20 20 20 19 20 20 20 20 21 21 22 23 25 26 26 26 26 26 25 25 25 25 25 25 25 25 26 26 27 27 28 29 29 29 28 27 26 26 26 26
17 17 17 18 17 15 15 15 14 14 14 14 14 14 15 15 16 17 17 17 18 20 20 20 21 22 21 19 21 22 21 20 20 20 20 19 18 18 19 20 21 21 21 21 21 20 20 20 20 20 20 20 20 20 21 22 22 24 25 26 27 27 26 26 25 25 25 25 25 26 26 26 26 26 27 28 28 29 29 29 28 27 27 27 27 27
17 17 16 17 17 17 16 15 15 14 14 15 16 17 17 16 17 17 18 18 18 19 19 19 21 22 20 18 20 21 20 20 20 20 19 19 19 19 20 21 21 21 21 21 21 21 20 20 20 20 20 20 20 20 21 22 23 24 26 27 27 26 26 25 25 25 25 26 26 26 26 26 27 27 28 28 29 29 29 28 28 27 27 27 27 27
17 17 17 17 17 17 16 16 16 15 16 17 18 18 18 17 17 17 17 18 19 19 19 20 22 22 20 19 20 20 19 19 20 19 19 19 19 20 20 21 21 21 21 21 21 21 20 20 20 20 19 19 20 21 21 22 23 25 26 26 26 26 26 25 25 25 26 26 26 27 27 27 27 28 28 28 29 29 28 28 28 27 27 27 27 27
18 18 18 18 18 17 17 17 16 18 19 17 16 17 17 17 18 18 18 19 19 20 20 21 22 22 21 21 21 21 20 20 19 19 19 19 20 20 20 21 21 21 21 21 21 21 20 20 19 19 19 20 20 21 21 23 24 25 26 26 26 26 26 25 25 25 26 26 27 27 28 28 28 29 29 29 28 29 29 28 28 27 27 28 27 27
19 19 19 19 18 17 17 17 18 19 19 17 16 16 16 17 17 18 19 20 20 21 21 22 22 22 22 21 21 21 20 20 20 20 20 19 19 19 20 21 21 21 21 21 20 20 19 19 18 18 19 20 20 21 22 23 24 25 26 26 26 26 26 25 25 25 26 27 27 28 28 28 28 29 29 29 28 29 29 29 28 27 27 27 27 26
20 20 19 19 19 18 18 19 20 19 19 18 17 17 17 17 17 18 21 21 20 20 20 21 22 22 21 20 19 19 19 18 19 19 19 19 18 19 19 20 20 20 20 19 19 19 19 18 18 19 19 20 21 21 23 23 24 25 26 26 26 26 25 25 25 26 26 27 28 28 28 28 29 29 29 28 28 29 29 28 27 27 27 27 26 25
21 20 20 20 20 20 20 21 21 21 20 20 19 18 18 18 18 18 21 21 19 19 19 20 20 20 18 18 17 17 16 16 16 17 17 16 16 17 18 18 18 19 19 18 18 18 18 18 18 19 20 20 21 22 23 23 24 25 25 26 26 26 25 25 26 27 27 28 29 29 29 29 28 28 28 28 28 28 28 27 27 27 27 26 25 24
20 21 21 21 21 21 20 20 21 21 21 21 20 19 18 18 17 18 20 20 18 17 18 18 18 17 16 16 15 15 14 14 15 15 14 15 15 16 16 17 17 17 17 17 17 17 17 18 19 20 21 21 22 23 23 24 24 25 25 26 26 26 25 26 27 27 28 29 29 29 29 29 28 28 28 28 28 28 27 27 27 27 26 25 24 23
19 20 20 21 21 21 21 21 20 21 20 20 19 18 16 17 17 17 19 20 18 17 17 17 16 16 16 14 14 13 14 14 14 14 14 14 14 15 15 15 15 15 16 16 17 17 18 19 20 21 21 22 24 24 24 24 25 25 25 25 25 25 26 26 27 28 28 29 29 29 29 28 28 27 28 28 28 27 27 27 27 26 25 24 23 22
19 19 20 21 21 21 22 21 21 21 20 19 19 17 16 17 17 17 19 19 17 16 17 17 17 17 16 14 13 13 14 14 14 14 14 14 13 14 14 14 14 14 15 16 17 18 19 20 20 21 22 24 25 26 25 25 25 25 25 25 25 25 26 27 27 28 28 29 29 29 29 28 28 28 28 28 28 27 27 27 26 25 24 23 21 21
19 19 20 21 21 21 22 22 21 21 21 20 19 18 17 17 18 19 20 18 17 17 17 17 18 18 16 14 13 14 14 14 14 14 14 13 13 14 14 14 14 14 15 16 18 19 19 20 21 22 24 25 26 26 26 26 26 25 25 25 25 26 27 28 28 28 29 29 29 29 29 29 29 29 29 28 28 27 27 26 25 24 23 22 20 20
19 19 19 21 21 21 21 22 21 21 21 19 18 17 18 18 19 20 20 19 18 19 18 18 18 17 16 16 15 15 14 14 13 14 14 14 14 14 14 14 14 15 16 17 18 19 20 21 22 24 25 26 26 26 26 26 26 26 26 26 27 27 28 28 28 29 29 29 29 29 30 30 30 30 29 28 28 27 26 25 24 23 22 21 20 20
20 20 19 20 20 20 20 21 21 20 19 18 16 17 18 20 20 19 20 20 20 20 20 20 20 19 18 17 16 15 14 13 13 14 14 14 14 14 15 15 15 16 17 18 19 20 21 22 23 25 25 26 26 26 26 26 27 27 27 28 28 28 28 28 28 29 29 29 29 30 30 30 31 30 29 28 28 27 26 24 23 22 22 21 20 20
20 20 20 20 20 20 20 20 20 19 18 18 19 20 21 22 21 21 22 22 23 22 21 21 21 20 19 18 17 16 15 14 14 14 14 14 14 15 15 16 17 18 18 19 20 21 22 23 24 25 26 26 27 27 27 27 28 28 28 28 28 28 28 28 29 29 29 29 29 30 30 31 31 31 29 28 28 27 26 24 23 22 22 21 20 20
20 20 20 21 21 21 22 22 21 21 22 23 24 25 25 26 26 25 25 25 24 23 22 22 21 21 20 19 18 16 15 15 14 14 15 15 15 16 16 17 18 18 19 20 21 21 22 24 25 26 27 27 28 28 28 28 28 28 28 28 28 27 27 28 29 29 29 29 29 30 30 30 31 30 29 28 27 26 25 23 22 22 21 20 20 19
21 21 22 22 22 23 23 23 23 24 25 25 25 26 27 27 27 27 26 26 25 23 22 22 21 20 19 19 18 17 16 15 15 15 15 16 16 16 17 17 18 19 20 21 22 22 24 25 26 27 28 28 29 28 28 29 29 29 28 27 27 27 28 28 29 29 29 29 30 30 30 30 30 30 29 27 26 25 24 22 21 21 20 19 19 19
22 23 23 22 22 23 23 22 23 25 26 26 25 25 25 26 26 25 25 25 24 23 22 21 20 19 19 19 18 17 17 16 16 16 16 16 17 17 17 18 19 20 21 22 23 24 25 26 27 28 29 29 30 29 29 29 29 28 27 26 26 27 28 28 29 29 29 29 30 30 30 30 30 29 28 26 25 24 23 21 21 21 20 18 18 18
22 23 23 23 23 23 23 23 24 26 26 25 25 24 24 25 25 24 24 23 22 21 20 19 18 18 18 18 18 17 17 17 17 17 17 17 17 18 18 19 20 21 22 23 24 24 25 26 27 28 29 30 30 29 29 28 28 27 26 26 26 27 28 28 28 28 28 29 29 29 29 29 29 28 26 25 25 24 22 21 20 19 18 17 17 17
23 24 23 23 24 24 24 23 24 24 24 24 24 25 25 25 24 23 23 22 20 19 18 18 18 18 18 18 18 18 17 18 18 17 17 18 18 19 20 20 21 22 23 23 24 25 26 27 27 28 29 29 28 28 27 27 26 26 25 26 26 27 27 27 27 28 28 28 28 29 29 29 28 28 26 26 25 24 22 21 20 19 17 17 16 16
24 24 24 24 24 24 23 22 23 23 24 25 26 26 26 25 24 23 22 21 20 19 18 18 18 18 19 19 19 18 18 18 18 18 18 19 20 20 21 22 22 23 24 24 25 26 26 27 27 27 28 27 27 27 26 26 26 25 25 26 26 26 26 26 27 28 28 28 29 29 29 29 29 28 27 26 25 24 22 20 19 18 17 16 15 15
25 25 25 25 25 25 25 24 23 24 25 26 27 27 26 25 24 23 22 21 21 20 20 19 19 19 19 19 19 19 19 19 20 20 20 21 21 22 22 23 23 24 24 25 26 26 26 26 26 27 27 27 26 26 26 25 25 25 26 26 26 26 26 26 27 28 28 29 29 30 30 29 28 28 28 27 26 23 21 19 18 16 15 14 14 13
Wind_Direction
193 192 192 191 191 188 185 185 182 181 184 183 187 197 200 203 207 210 215 229 222 205 213 218 189 183 194 188 186 160 137 140 127 117 127 137 146 148 143 139 142 149 137 73 50 49 47 49 48 45 38 28 13 355 342 328 315 306 300 297 296 295 294 294 296 298 299 299 300 302 302 303 303 303 303 302 302 302 303 303 301 299 297 297 292 284
186 187 191 194 191 184 183 183 178 180 185 190 198 201 204 210 210 212 217 228 235 225 216 209 192 193 200 197 209 196 179 186 181 165 149 149 157 157 151 144 144 147 120 37 31 36 34 42 51 39 26 17 5 351 339 329 321 313 308 304 303 302 300 297 297 299 301 300 300 302 303 304 304 305 305 305 304 304 304 304 303 302 301 300 296 288
183 189 192 191 181 172 178 185 182 187 195 200 208 212 214 213 207 212 220 225 233 229 216 207 205 211 215 218 230 218 210 216 206 201 189 171 172 173 170 164 168 178 184 302 358 29 30 55 76 13 345 344 350 350 347 342 334 327 320 315 312 310 306 303 302 304 306 304 303 303 304 305 305 305 305 305 305 304 303 302 301 301 300 299 295 291
183 190 191 183 176 174 181 189 185 190 205 210 213 218 220 215 213 216 219 222 230 229 216 209 217 229 229 234 239 230 226 232 225 220 217 208 203 195 189 187 190 200 208 226 248 256 238 168 195 251 292 322 341 348 350 349 344 340 335 329 325 321 317 314 313 313 313 311 309 307 307 306 306 305 305 305 305 305 304 302 300 300 299 298 296 293
188 186 182 177 182 186 184 190 195 198 211 219 220 222 218 213 219 218 209 211 219 221 211 205 223 240 238 240 239 236 236 235 230 227 224 221 223 222 214 211 216 221 224 228 229 225 219 213 232 262 288 312 328 335 343 346 345 342 339 335 331 328 325 322 319 316 314 313 311 310 309 309 308 308 307 307 307 307 306 305 303 301 300 299 298 296
199 192 186 184 190 196 192 197 208 209 213 221 223 225 219 210 209 201 198 204 211 218 217 215 234 246 242 243 242 240 238 234 231 231 230 224 227 232 228 223 228 234 237 239 234 226 227 238 258 278 292 303 312 326 338 344 344 343 341 339 335 331 327 324 321 318 316 315 314 314 314 313 313 312 311 310 309 308 307 306 305 304 303 302 301 299
198 194 195 191 188 194 200 204 212 215 212 216 219 216 210 202 193 190 195 205 212 220 223 229 246 256 250 246 243 242 241 235 232 234 233 228 228 233 234 230 231 234 237 243 243 239 242 251 265 275 288 301 311 322 332 337 340 341 340 338 334 331 328 326 324 322 320 319 318 318 318 317 316 315 313 312 311 310 309 308 307 306 305 303 302 301
193 191 194 194 190 196 207 210 214 220 215 213 212 198 193 191 189 193 200 211 221 223 227 237 249 259 261 257 249 243 243 239 236 237 234 229 229 232 235 234 233 236 237 241 244 242 248 258 267 275 287 302 313 319 324 329 334 336 336 336 334 331 330 329 327 325 323 322 321 320 320 320 319 317 316 315 314 313 312 310 309 308 306 305 304 303
194 196 196 198 201 208 219 219 205 212 224 225 209 187 186 192 197 206 211 220 229 229 233 237 242 253 261 266 262 250 246 242 239 239 234 229 228 231 236 236 235 239 240 244 248 246 250 259 268 280 288 295 306 314 320 325 329 332 333 334 334 332 331 330 328 327 325 323 322 321 321 321 320 320 319 318 317 316 315 314 313 311 309 307 305 304
199 208 208 206 212 215 220 223 209 217 227 210 190 168 175 196 211 224 225 225 230 237 244 236 233 249 261 261 261 256 250 244 242 241 236 231 229 231 236 237 236 240 242 245 250 251 253 260 269 278 283 286 297 308 316 322 325 328 329 331 332 331 329 329 328 326 324 323 322 322 322 321 321 321 321 320 319 318 318 317 316 314 312 310 308 307
208 214 216 218 223 215 203 215 231 229 205 189 183 172 176 202 222 231 234 234 237 245 254 246 237 247 262 262 255 253 255 249 244 242 237 233 231 231 235 238 238 241 243 245 249 252 256 264 271 276 279 282 293 303 311 318 323 326 327 328 329 328 327 326 326 325 323 322 322 322 322 322 322 322 322 321 320 320 319 318 317 316 315 313 311 309
215 213 219 224 221 210 202 214 234 228 210 206 204 194 194 216 226 230 237 241 245 249 259 259 247 244 252 260 257 253 259 256 246 241 235 232 232 232 234 238 239 241 241 242 247 250 254 261 267 272 276 280 289 298 306 315 320 323 325 326 326 325 324 325 325 325 324 323 322 323 323 323 323 323 322 322 321 321 321 320 319 319 317 316 314 312
215 216 224 226 219 217 213 206 214 229 230 223 211 204 213 230 231 234 239 245 250 253 259 259 249 244 250 259 262 256 254 253 249 245 238 234 232 232 233 237 240 241 240 241 246 249 251 256 261 265 270 276 285 294 303 312 318 321 323 324 324 324 324 326 326 326 325 323 323 323 323 323 322 322 322 322 322 321 321 321 320 319 319 317 316 314
211 218 221 218 218 223 220 210 211 223 224 217 213 217 223 229 235 238 242 255 258 256 258 254 249 252 255 259 262 257 252 249 249 249 245 237 232 229 231 235 239 239 240 241 245 248 250 253 258 262 267 273 281 291 301 310 315 319 322 322 323 324 325 326 327 326 324 323 322 322 322 322 322 322 322 322 322 322 321 321 320 319 318 318 316 315
213 217 217 215 218 219 220 225 227 221 220 226 232 233 228 230 243 249 248 255 259 257 254 248 248 252 252 256 263 264 263 257 252 251 249 243 235 230 231 235 238 238 239 242 244 247 249 253 259 263 267 272 279 288 299 308 314 318 320 321 322 324 325 326 327 325 323 321 321 321 321 321 321 321 321 322 322 322 321 320 320 319 318 318 317 316
219 223 222 224 225 218 218 229 238 230 224 231 239 238 240 242 249 262 266 262 262 260 252 247 253 257 257 262 266 268 270 264 257 253 251 246 238 233 233 235 237 238 239 240 243 247 250 254 261 264 266 273 279 287 297 306 312 316 319 320 321 323 325 325 325 324 322 321 321 321 321 321 321 321 322 322 322 322 322 321 320 319 319 319 318 317
220 224 226 225 224 224 225 225 234 243 231 225 231 233 244 257 255 259 271 273 266 261 256 255 260 266 268 266 261 263 268 265 260 254 250 246 238 234 237 237 237 237 238 239 243 248 251 255 261 264 266 272 280 287 296 304 310 315 317 319 321 323 324 324 323 322 322 321 321 321 321 321 321 322 322 322 322 322 321 321 320 320 320 319 319 317
221 222 227 226 220 223 230 221 223 245 240 229 232 228 234 259 267 267 273 274 267 264 262 257 260 267 271 268 264 267 270 267 261 254 249 246 239 237 240 239 236 236 237 239 244 249 254 257 260 262 266 272 279 287 295 302 309 314 316 318 320 322 322 322 322 322 322 322 321 321 321 321 321 322 322 322 322 322 322 321 320 320 320 320 318 317
222 223 226 228 223 221 229 225 218 235 247 241 232 228 239 257 265 268 272 272 268 269 266 257 260 266 264 266 275 277 274 270 263 256 249 245 242 241 240 238 236 236 237 240 244 250 254 257 259 262 266 272 278 286 293 301 307 312 315 318 320 321 321 321 321 321 321 321 321 321 321 321 321 321 322 322 322 323 323 322 321 320 320 320 318 316
223 227 226 226 227 224 226 228 223 225 235 236 228 235 253 265 270 268 270 273 270 268 267 264 264 264 262 267 276 278 278 272 262 258 253 246 243 243 241 238 237 237 239 241 244 249 252 254 257 260 265 271 277 285 292 299 305 309 313 317 319 320 320 320 320 320 321 321 321 320 320 321 321 321 321 322 322 323 324 324 323 321 321 320 318 316
224 228 226 223 225 225 224 228 230 228 226 227 229 236 248 257 268 271 270 271 270 265 266 270 270 268 267 271 274 275 277 272 263 262 258 250 244 244 242 239 239 239 240 242 244 247 250 252 256 261 266 271 277 284 290 296 302 306 311 315 318 319 319 320 320 320 320 320 320 320 320 320 320 321 321 321 322 323 324 325 325 323 322 320 318 316
223 225 223 220 221 225 231 237 239 239 237 236 237 240 244 249 257 266 268 266 267 268 267 271 275 274 273 276 276 277 279 275 268 267 264 255 246 242 241 240 241 241 241 242 244 246 248 252 256 261 266 271 277 283 288 293 299 303 309 314 316 317 318 319 319 319 319 320 319 319 319 320 320 320 321 321 322 323 324 325 325 325 324 321 319 317
224 223 222 224 228 232 238 242 241 242 241 242 247 248 248 252 254 259 265 263 260 266 269 273 276 275 278 282 282 281 282 280 276 273 271 261 249 243 242 241 242 243 243 243 244 246 248 252 257 261 265 270 276 281 286 291 296 301 307 312 315 316 317 317 318 319 319 318 318 318 319 319 319 319 320 320 321 322 323 324 324 324 323 321 319 318
222 224 223 226 232 234 236 240 240 240 237 239 247 250 249 256 261 263 268 268 260 260 265 270 272 274 282 287 286 283 281 281 281 278 274 266 256 249 244 242 243 243 243 244 245 247 249 253 257 261 266 271 276 280 284 289 294 300 306 311 313 314 315 316 317 317 317 317 316 317 318 318 318 318 319 320 320 321 322 322 322 322 321 320 319 318
221 224 221 220 226 231 233 235 237 238 239 242 246 249 251 255 258 262 267 269 266 264 265 268 271 278 288 291 288 285 281 280 282 279 276 272 266 258 251 246 244 243 243 244 245 248 250 253 257 261 266 271 275 279 283 287 293 300 306 310 312 313 314 315 316 316 316 315 315 316 317 317 317 317 318 319 320 321 321 321 321 321 320 319 317 316
224 228 224 221 223 228 231 235 240 238 238 243 245 245 249 250 249 256 263 263 266 269 267 267 273 282 290 290 287 284 282 281 281 278 275 274 270 264 257 251 247 246 246 245 245 248 250 253 257 261 265 271 275 278 281 286 292 300 305 308 310 312 313 314 315 315 315 314 314 314 315 315 316 316 317 318 320 320 321 321 321 320 319 317 316 315
229 233 231 230 232 235 237 241 248 246 238 240 241 239 245 250 251 256 260 262 266 270 269 271 280 286 288 288 286 282 278 278 279 276 274 273 269 264 259 253 249 249 249 247 247 249 251 254 257 260 265 270 274 277 280 285 293 299 303 306 309 311 312 313 314 314 314 314 313 313 313 314 314 315 316 317 318 319 320 321 321 319 318 316 315 314
232 233 232 233 237 242 244 244 248 248 241 239 238 236 242 248 248 251 258 264 268 271 274 277 281 284 285 286 285 282 279 277 276 274 272 270 266 262 259 255 252 251 250 248 248 249 251 253 257 260 265 270 273 276 279 286 293 298 302 305 309 310 311 313 313 313 313 312 312 312 312 312 313 314 315 316 317 318 319 320 320 319 317 315 313 312
233 234 233 233 236 239 242 244 245 246 243 242 239 238 241 245 247 252 261 267 267 271 279 283 280 280 285 286 284 282 280 277 275 274 272 270 265 261 257 254 252 251 250 249 249 250 251 253 257 261 265 269 273 275 279 286 293 297 302 305 308 310 311 312 312 312 312 311 311 311 311 312 312 313 314 314 315 316 317 318 319 318 317 315 313 311
234 234 234 233 233 234 238 241 242 242 242 244 246 245 246 249 253 259 266 268 267 274 283 286 282 282 284 284 282 282 282 279 278 276 273 270 265 259 255 252 251 249 249 249 250 250 251 254 257 261 264 268 272 275 280 287 292 296 301 305 307 309 311 311 310 310 310 310 310 310 311 312 312 312 313 313 314 315 316 317 317 317 316 314 313 311
235 235 234 234 233 234 237 239 241 244 245 246 249 252 253 256 260 265 269 271 273 279 284 286 286 286 285 281 279 280 281 280 277 274 271 267 263 259 256 254 250 248 248 249 249 250 252 255 258 261 264 268 271 275 281 287 292 296 301 304 307 309 310 309 308 308 309 309 309 309 310 311 311 312 313 313 313 314 315 316 316 315 314 314 313 311
235 234 235 235 233 234 239 241 241 246 249 250 253 253 254 258 263 267 271 274 276 280 284 285 287 288 288 284 281 280 280 278 275 272 270 267 263 260 257 254 251 248 248 248 249 250 251 254 257 260 265 269 271 275 282 287 292 297 300 304 307 309 309 308 307 307 308 308 308 308 309 310 311 312 312 313 313 314 315 316 315 314 314 314 313 311
234 231 233 236 235 237 242 243 242 246 250 252 255 255 254 258 265 270 275 276 276 280 283 284 286 289 290 288 285 282 280 278 276 274 272 268 265 262 259 255 251 249 248 248 248 249 251 254 257 260 265 268 271 276 282 288 293 297 300 303 306 308 307 306 306 307 308 308 308 308 309 310 310 311 312 313 313 314 315 315 314 313 313 313 313 312
235 234 236 239 239 240 242 243 243 246 249 253 260 261 260 259 260 265 272 275 276 279 284 287 289 290 289 286 284 282 279 278 277 276 275 272 268 264 260 256 252 250 248 248 248 249 251 254 258 262 266 268 272 278 284 289 293 297 300 302 305 306 306 305 305 306 307 307 307 308 309 310 310 311 312 312 313 313 314 314 314 313 313 313 312 311
236 237 240 241 242 242 242 242 245 248 253 259 264 265 267 268 265 269 277 280 278 279 283 286 287 286 285 285 284 281 278 276 276 276 275 273 269 265 261 257 253 250 248 248 247 248 252 255 259 264 267 269 274 280 285 290 293 296 298 301 303 304 304 304 304 305 306 307 308 309 309 310 311 311 312 312 312 313 313 314 313 312 312 312 312 311
235 238 241 242 243 243 241 242 248 256 260 261 262 263 267 271 272 275 280 280 279 280 282 283 283 284 285 286 284 281 278 277 278 276 274 273 269 264 262 259 255 251 249 247 246 248 252 255 259 263 267 270 275 280 285 290 293 295 297 300 302 302 302 303 303 304 305 306 308 309 310 310 311 311 311 311 312 313 314 314 313 312 312 312 312 311
237 238 241 242 244 245 244 245 252 260 260 257 259 263 266 268 269 273 278 280 281 283 282 281 283 284 286 287 285 282 279 278 278 276 273 272 269 266 265 264 258 254 250 248 248 251 253 255 258 263 267 271 276 280 286 290 292 294 297 299 300 301 301 302 303 303 305 306 307 309 310 310 310 310 310 310 311 313 313 313 313 313 312 312 312 311
239 241 241 242 244 245 246 249 252 256 257 256 260 265 267 269 270 273 277 280 284 284 279 278 282 285 287 287 283 279 278 277 276 275 273 271 269 268 268 267 263 258 252 248 250 253 255 257 261 265 268 272 276 282 286 289 291 295 297 297 298 299 300 301 301 303 305 307 308 308 309 309 309 309 310 310 310 311 312 312 313 312 312 312 312 312
238 241 241 242 244 244 245 249 251 253 258 260 262 266 269 269 271 274 276 279 286 285 276 274 279 283 283 282 277 274 275 274 273 277 276 272 270 269 267 266 265 260 254 250 250 253 256 260 264 267 270 273 279 283 286 288 291 294 296 297 297 298 298 299 301 303 306 307 308 308 309 309 309 309 309 309 309 309 310 310 311 311 311 312 311 311
237 240 241 241 243 243 245 249 252 255 259 262 264 268 269 268 269 270 273 280 287 284 276 272 274 276 277 276 273 272 274 273 274 279 279 273 269 267 265 265 263 259 257 255 254 256 260 263 266 269 272 276 282 285 286 287 290 293 295 296 296 296 297 298 301 304 306 307 307 308 308 308 308 309 309 308 307 307 307 308 309 309 310 310 310 310
239 241 242 242 243 244 245 250 255 257 259 262 266 267 265 265 266 265 271 281 286 281 277 272 269 271 272 269 268 271 273 275 279 281 276 269 266 265 265 266 265 262 260 259 258 261 265 267 269 272 276 280 285 286 286 287 290 292 294 295 295 295 296 298 301 305 306 306 307 307 308 307 307 307 307 307 306 306 306 306 307 307 308 307 307 308
239 240 243 243 244 246 247 251 256 260 261 263 265 265 262 262 264 267 275 283 283 278 276 272 268 269 268 264 264 269 271 274 278 277 272 268 267 267 267 268 268 267 266 266 265 266 269 272 274 276 280 284 286 288 288 288 289 291 293 294 294 295 296 299 302 304 305 306 306 306 307 307 306 306 305 306 306 306 305 305 306 307 307 305 305 307
241 242 244 244 245 248 250 251 255 261 263 262 261 263 264 264 268 276 280 281 280 278 274 269 267 267 265 262 264 268 271 273 274 273 271 271 271 271 269 268 268 269 269 270 270 271 273 277 279 280 283 286 288 288 288 287 288 290 292 292 293 295 296 299 302 304 305 305 306 306 306 306 306 305 304 304 304 303 301 301 302 303 304 304 304 305
244 245 247 247 247 249 249 250 255 259 262 261 261 265 266 266 271 279 281 280 280 278 273 269 268 266 264 261 262 265 269 271 271 270 271 272 272 272 270 270 271 272 272 273 274 275 278 280 282 284 286 288 289 288 287 286 287 289 291 292 292 294 296 299 301 303 304 305 306 306 306 306 306 305 304 303 301 299 297 297 296 296 298 300 300 302
247 249 250 250 250 252 254 256 260 264 266 267 268 269 271 271 274 278 280 280 279 276 272 270 267 264 263 261 260 262 265 267 268 270 270 271 272 273 273 274 275 276 278 279 280 282 282 284 285 287 288 289 288 288 287 286 286 288 290 291 292 294 296 298 300 302 303 304 306 306 307 307 306 306 305 303 301 298 296 295 293 292 293 295 296 299
250 251 252 253 254 257 259 260 262 266 268 270 270 270 271 273 275 275 276 277 276 274 271 270 267 262 260 259 259 261 263 265 266 269 270 271 273 275 277 279 281 282 283 284 285 286 286 287 288 288 289 289 288 288 287 287 287 288 289 290 291 293 295 297 299 301 302 303 305 307 307 307 307 306 305 302 300 297 295 293 291 290 291 291 292 296
249 251 253 254 254 258 259 259 263 267 270 271 272 272 273 274 274 273 272 273 273 272 269 267 265 261 257 257 258 260 262 264 266 268 270 272 274 277 280 282 283 284 285 285 287 288 288 289 289 289 289 289 289 288 287 286 287 287 288 289 291 293 294 295 297 299 301 303 305 306 307 308 307 306 304 301 299 296 294 291 289 288 288 287 289 292
249 252 254 254 255 258 260 262 268 271 271 270 272 273 275 275 274 272 271 271 270 269 266 264 262 260 258 257 258 260 262 265 267 269 271 274 277 280 282 283 284 285 286 286 288 289 289 289 289 289 290 291 291 290 288 286 286 287 288 289 291 292 293 295 296 298 300 303 304 305 307 307 307 306 303 300 298 296 293 290 287 286 284 285 286 289
252 254 255 255 257 259 259 264 272 274 272 273 276 276 276 276 273 271 271 269 266 264 263 262 262 261 258 257 259 261 264 266 269 271 273 276 280 282 283 284 285 286 287 288 289 289 290 290 290 291 292 293 294 292 290 288 288 287 288 289 291 292 293 294 296 298 300 301 302 304 306 306 306 304 301 297 295 293 291 288 285 282 281 283 286 287
252 254 255 256 258 259 259 263 269 269 267 271 277 279 279 276 272 268 267 265 262 260 259 259 261 261 260 260 262 264 265 268 271 273 275 278 281 282 284 285 286 287 288 290 290 291 291 292 293 294 294 295 294 293 292 290 288 288 288 289 291 292 292 294 296 298 299 301 302 303 304 304 304 303 300 297 293 290 287 284 281 279 278 279 282 285
252 254 255 257 259 260 261 264 265 264 264 269 275 279 279 274 269 266 265 262 260 259 258 257 257 258 260 263 266 267 267 269 272 274 276 279 280 282 284 286 287 288 289 290 291 292 293 294 295 295 295 295 294 293 292 290 289 288 289 290 291 291 292 294 296 297 299 300 301 302 303 303 302 301 299 296 291 286 281 278 276 276 276 276 277 280